Date String (YYYY-MM-DD hh:mm:ss) UTC,Instrument flags,Ambient pressure (hPa),Sample flow (lpm),Bypass flow (lpm),Sample temperature (°C),Ambient temperature (°C),ASC tube jacket temperature (°C),LED temperature (°C),Box temperature (°C),Sample RH (%),Span deviation,Mass concentration (μg/m³),Mass concentration (μg/m³),Mass concentration (μg/m³)
DateTimeUTC,F1_M11,P_M11,Q1_M11,Q2_M11,T1_M11,T2_M11,T3_M11,T4_M11,T5_M11,U1_M11,ZSPAN_M11,X0_M11,X2_M11,X1_M11
2022-03-19 17:00:00,,0826.8,5.00,0.00,23.2,22.5,00.0,32.1,25.0,10.0,0000.0,0006.91,0003.29,0002.01
2022-03-19 17:01:00,,0826.8,5.00,0.00,23.2,22.5,00.0,32.1,25.0,09.7,0000.0,0006.72,0003.23,0001.99
2022-03-19 17:02:00,,0826.9,5.00,0.00,23.2,22.6,00.0,32.2,25.0,09.8,0000.0,0007.03,0003.25,0001.98
2022-03-19 17:03:00,,0826.7,5.00,0.00,23.2,22.6,00.0,32.2,25.0,09.8,0000.0,0007.19,0003.25,0001.97
2022-03-19 17:04:00,,0826.9,5.00,0.00,23.2,22.5,00.0,32.2,25.0,10.2,0000.0,0007.44,0003.28,0001.97
2022-03-19 17:05:00,,0827.3,5.00,0.00,23.2,22.6,00.0,32.2,25.0,09.6,0000.0,0007.67,0003.34,0001.98
2022-03-19 17:06:00,,0827.0,5.01,0.00,23.2,22.6,00.0,32.2,25.0,09.9,0000.0,0007.85,0003.40,0001.98
2022-03-19 17:07:00,,0826.8,4.99,0.00,23.2,22.6,00.0,32.2,25.0,09.8,0000.0,0007.91,0003.44,0001.99
2022-03-19 17:08:00,,0826.9,5.00,0.00,23.2,22.6,00.0,32.2,25.0,09.1,0000.0,0008.11,0003.43,0001.99
2022-03-19 17:09:00,,0827.1,5.01,0.00,23.3,22.6,00.0,32.2,25.0,09.3,0000.0,0008.36,0003.46,0001.98
2022-03-19 17:10:00,,0826.8,5.00,0.00,23.3,22.6,00.0,32.2,25.0,09.5,0000.0,0008.40,0003.47,0001.99
2022-03-19 17:11:00,,0826.8,5.01,0.00,23.3,22.6,00.0,32.2,25.0,09.2,0000.0,0008.90,0003.49,0001.99
2022-03-19 17:12:00,,0826.8,5.00,0.00,23.3,22.6,00.0,32.2,25.0,09.4,0000.0,0009.10,0003.49,0002.00
2022-03-19 17:13:00,,0826.8,5.00,0.00,23.3,22.6,00.0,32.2,25.0,09.5,0000.0,0008.94,0003.46,0002.00
2022-03-19 17:14:00,,0826.8,4.99,0.00,23.3,22.6,00.0,32.2,25.0,10.3,0000.0,0008.82,0003.46,0002.01
2022-03-19 17:15:00,,0826.8,5.00,0.00,23.3,22.6,00.0,32.2,25.0,09.7,0000.0,0008.75,0003.44,0002.02
2022-03-19 17:16:00,,0826.8,5.00,0.00,23.3,22.6,00.0,32.2,25.0,09.8,0000.0,0008.55,0003.39,0002.01
2022-03-19 17:17:00,,0826.8,5.00,0.00,23.3,22.6,00.0,32.2,25.1,09.4,0000.0,0008.42,0003.34,0002.02
2022-03-19 17:18:00,,0826.9,5.00,0.00,23.3,22.7,00.0,32.2,25.0,09.4,0000.0,0008.25,0003.29,0002.02
2022-03-19 17:19:00,,0826.8,5.00,0.00,23.3,22.7,00.0,32.2,25.1,09.4,0000.0,0008.00,0003.27,0002.02
2022-03-19 17:20:00,,0826.9,5.00,0.00,23.3,22.7,00.0,32.3,25.1,09.2,0000.0,0007.72,0003.25,0002.01
2022-03-19 17:21:00,,0826.8,5.00,0.00,23.3,22.7,00.0,32.3,25.1,09.1,0000.0,0007.59,0003.23,0002.00
2022-03-19 17:22:00,,0826.8,4.99,0.00,23.3,22.7,00.0,32.3,25.1,09.3,0000.0,0007.17,0003.23,0001.99
2022-03-19 17:23:00,,0826.8,5.00,0.00,23.3,22.7,00.0,32.3,25.1,09.1,0000.0,0006.59,0003.24,0001.99
2022-03-19 17:24:00,,0826.8,5.01,0.00,23.3,22.7,00.0,32.3,25.1,09.7,0000.0,0006.83,0003.25,0001.98
2022-03-19 17:25:00,,0826.8,5.00,0.00,23.4,22.7,00.0,32.3,25.1,09.9,0000.0,0006.94,0003.26,0001.97
2022-03-19 17:26:00,,0826.8,5.00,0.00,23.4,22.8,00.0,32.3,25.1,09.9,0000.0,0006.97,0003.29,0001.97
2022-03-19 17:27:00,,0826.8,4.99,0.00,23.4,22.7,00.0,32.3,25.1,09.2,0000.0,0007.58,0003.31,0002.00
2022-03-19 17:28:00,,0826.7,5.00,0.00,23.4,22.7,00.0,32.3,25.1,09.8,0000.0,0008.05,0003.34,0002.02
2022-03-19 17:29:00,,0826.8,5.00,0.00,23.3,22.7,00.0,32.3,25.0,09.4,0000.0,0008.31,0003.40,0002.03
2022-03-19 17:30:00,,0826.8,5.01,0.00,23.3,22.6,00.0,32.3,25.0,09.1,0000.0,0008.33,0003.44,0002.07
2022-03-19 17:31:00,,0826.8,5.00,0.00,23.3,22.6,00.0,32.3,25.0,09.1,0000.0,0008.49,0003.47,0002.10
2022-03-19 17:32:00,,0826.7,4.99,0.00,23.3,22.6,00.0,32.3,25.0,09.8,0000.0,0008.81,0003.53,0002.13
2022-03-19 17:33:00,,0826.8,5.01,0.00,23.3,22.6,00.0,32.3,25.0,09.6,0000.0,0008.84,0003.56,0002.15
2022-03-19 17:34:00,,0826.7,4.99,0.00,23.3,22.6,00.0,32.3,25.0,09.4,0000.0,0009.11,0003.57,0002.17
2022-03-19 17:35:00,,0826.7,5.01,0.00,23.3,22.6,00.0,32.3,25.0,09.2,0000.0,0009.28,0003.61,0002.20
2022-03-19 17:36:00,,0826.7,5.00,0.00,23.3,22.6,00.0,32.3,25.0,09.3,0000.0,0010.03,0003.66,0002.23
2022-03-19 17:37:00,,0826.7,5.00,0.00,23.3,22.6,00.0,32.3,25.0,09.2,0000.0,0010.14,0003.66,0002.23
2022-03-19 17:38:00,,0826.7,4.99,0.00,23.3,22.6,00.0,32.3,25.0,09.0,0000.0,0009.76,0003.66,0002.23
2022-03-19 17:39:00,,0826.7,4.99,0.00,23.3,22.6,00.0,32.3,25.0,09.2,0000.0,0009.31,0003.65,0002.20
2022-03-19 17:40:00,,0826.7,5.01,0.00,23.3,22.6,00.0,32.3,25.0,08.8,0000.0,0009.32,0003.64,0002.22
2022-03-19 17:41:00,,0826.7,5.00,0.00,23.3,22.6,00.0,32.3,25.1,09.4,0000.0,0009.45,0003.66,0002.20
2022-03-19 17:42:00,,0826.7,4.99,0.00,23.3,22.7,00.0,32.3,25.1,09.7,0000.0,0009.46,0003.71,0002.20
2022-03-19 17:43:00,,0826.7,5.00,0.00,23.3,22.7,00.0,32.3,25.1,10.1,0000.0,0009.22,0003.67,0002.17
2022-03-19 17:44:00,,0826.7,5.00,0.00,23.4,22.7,00.0,32.3,25.1,10.0,0000.0,0009.61,0003.73,0002.16
2022-03-19 17:45:00,,0826.7,5.00,0.00,23.4,22.8,00.0,32.3,25.2,09.5,0000.0,0009.79,0003.78,0002.17
2022-03-19 17:46:00,,0826.7,5.00,0.00,23.4,22.8,00.0,32.3,25.2,09.2,0000.0,0009.66,0003.76,0002.17
2022-03-19 17:47:00,,0826.7,5.00,0.00,23.4,22.8,00.0,32.4,25.2,09.6,0000.0,0009.02,0003.75,0002.17
2022-03-19 17:48:00,,0826.7,5.00,0.00,23.4,22.8,00.0,32.4,25.2,09.3,0000.0,0008.91,0003.78,0002.19
2022-03-19 17:49:00,,0826.7,5.00,0.00,23.4,22.8,00.0,32.4,25.2,09.1,0000.0,0008.87,0003.79,0002.21
2022-03-19 17:50:00,,0826.6,5.00,0.00,23.4,22.8,00.0,32.4,25.2,09.0,0000.0,0008.85,0003.79,0002.22
2022-03-19 17:51:00,,0826.6,5.01,0.00,23.4,22.8,00.0,32.4,25.1,08.9,0000.0,0008.96,0003.79,0002.22
2022-03-19 17:52:00,,0826.6,5.00,0.00,23.4,22.8,00.0,32.4,25.2,09.5,0000.0,0008.72,0003.75,0002.20
2022-03-19 17:53:00,,0826.6,5.01,0.00,23.5,22.8,00.0,32.4,25.2,10.0,0000.0,0008.75,0003.69,0002.17
2022-03-19 17:54:00,,0826.6,5.00,0.00,23.5,22.8,00.0,32.4,25.3,09.6,0000.0,0008.79,0003.68,0002.18
2022-03-19 17:55:00,,0826.6,5.00,0.00,23.5,22.9,00.0,32.4,25.2,09.5,0000.0,0008.86,0003.65,0002.19
2022-03-19 17:56:00,,0826.6,5.00,0.00,23.5,22.9,00.0,32.4,25.2,09.8,0000.0,0008.34,0003.58,0002.19
2022-03-19 17:57:00,,0826.6,5.00,0.00,23.5,22.9,00.0,32.4,25.2,09.3,0000.0,0008.32,0003.59,0002.18
2022-03-19 17:58:00,,0826.6,5.00,0.00,23.5,22.9,00.0,32.4,25.2,08.9,0000.0,0008.29,0003.61,0002.19
2022-03-19 17:59:00,,0826.6,4.99,0.00,23.5,22.9,00.0,32.4,25.3,09.1,0000.0,0008.26,0003.57,0002.19
